Location: Beau Repaire
(50.6144°N, 4.0551°E)
Time: 05:38:31
(UTC+00:00)

Cosmos 1763 Rocket - Pass Details

Date: 15 May 2026
Orbit: 728 x 773 km, 74.0° (Epoch: 6 June)

Event Time Altitude Azimuth Distance (km) Brightness Sun altitude
Exits shadow 21:10:52 16° 166° (SSE) 1,910 5.0 -13.0°
Maximum altitude 21:14:34 40° 104° (ESE) 1,138 4.0 -13.3°
Drops below altitude 10° 21:19:27 10° 37° (NE) 2,321 6.2 -13.8°
Sets 21:21:56 0° 30° (NNE) 3,247 7.1 -14.0°
